Location: La Fredeussais
(48.1780°N, 1.3980°W)
Time: 08:19:41
(UTC+00:00)

STARLINK-2691 - Pass Details

Date: 30 July 2021
Orbit: 547 x 548 km, 53.1° (Epoch: 19 September)

Event Time Altitude Azimuth Distance (km) Brightness Sun altitude
Rises 21:25:46 0° 288° (WNW) 2,718 8.2 -13.9°
Reaches altitude 10° 21:28:48 10° 264° (W) 1,820 6.7 -14.2°
Maximum altitude 21:31:08 15° 230° (SW) 1,530 5.9 -14.5°
Enters shadow 21:33:22 10° 196° (SSW) 1,787 5.9 -14.7°
